Location: Lombard
(41.8800°N, 88.0080°W)
Time: 01:28:37
(UTC-05:00)

Gurwin Techsat 1B - Pass Details

Date: 22 May 2022
Orbit: 811 x 814 km, 98.8° (Epoch: 27 June)

Event Time Altitude Azimuth Distance (km) Brightness Sun altitude
Rises 04:03:34 0° 7° (N) 3,345 12.7 -13.2°
Reaches altitude 10° 04:06:00 10° 1° (N) 2,408 11.7 -12.8°
Maximum altitude 04:11:01 44° 291° (WNW) 1,121 9.2 -12.1°
Enters shadow 04:15:00 16° 225° (SW) 2,030 10.0 -11.6°
